カタログに戻る

STARLINK-3138

運用中通信VLEO
NORAD 49430·PAYLOAD·🇺🇸 United States

打ち上げ Nov 13, 2021 から Cape Canaveral Space Force Station

Loading…

次のパス (今後24時間)

TLE

最新Source: CelesTrak SupGP

元期: Sep 15, 2026, 01:11 UTC

1 49430C 21104Y   26258.04979167  .00020040  00000+0  59208-3 0  2584
2 49430  53.1573  86.8437 0001063  72.4549 116.0406 15.34380574    12

AllMySatでSTARLINK-3138をリアルタイム追跡

Download on the App Store